SL-14 DEB, 45654

Orbit data source: Space-Track

SL-14 DEB, 45654 is space debris in LEO originally from a launch on Thu, 15 Aug 1991 UTC launched from the Plesetsk Missile And Space Complex (PKMTR). Debris objects in space refer to the collection of defunct objects orbiting the Earth. Examples of debris include non-operational satellites, rocket bodies, and fragments generated from explosions, collisions, or faulty payload assembly.

Loading next visibility...
Identifier
45654, 1991-056CY
Orbit
LEO
Country
Flag of CISCIS
Related business
Manufacturer
Unknown
Mission
Spacecraft
Bus & Motor
Unknown
Mass
Unknown
Launch date (UTC)
1991-08-15 (35 years ago)
Launch vehicle
Unknown
Launch site
Plesetsk Missile And Space Complex (PKMTR)
Object type
Payload
Rocket body
Debris
Shape & HBR
Unknown shape, 0.1 m
Radar Cross Section
Small (<0.1 m²)

Expand to show TLE details & history
Last TLE update: 4 days ago

TLE from 4 days ago
0 SL-14 DEB
1 45654U 91056CY  26169.29186146  .00000608  00000-0  13952-2 0  9992
2 45654  82.5780 127.5847 0033391  33.1865 327.1347 13.23807392304726
Epoch: 2026-06-18T07:00Z
TLE epoch observation values (Epoch: 2026-06-18T07:00:16.830Z)
Latitude
0.00006°
Longitude
115.97729°
Altitude
1,151.88 km
Speed
7.287 km/s
True Right ascension
08h 30m 20s
True Declination
0° 00' 00"
Sunlit
Object was in daylight at epoch
Visualization orbit readout
Latitude
Unknown
Longitude
Unknown
Altitude
Unknown
Speed
Unknown
Apparent Right ascension
Unknown
Apparent Declination
Unknown
Sunlit
N/A
Visualization observer readout
Local Sidereal Time
21:39:21
Azimuth
Unknown
Elevation
Unknown
Doppler factor
Unknown
Orbital elements
Apogee altitude
1,192.642 km
Perigee altitude
1,142.251 km
Semi-major axis
7,545.583 km
Eccentricity
0.00334
Inclination
82.578°
RAAN
127.5847°
Arg. of periapsis
33.1865°
True anomaly
326.92633°
Mean anomaly
327.1347°
Eccentric anomaly
327.03059°
Mean motion
3.31134 °/min
Orbital period
108.72 mins
BSTAR
0.0013952
Loading maneuver chart data...
Computing Atmospheric mass density...
Loading historical data...
Loading historical data...
Loading historical data...
Loading historical data...
Loading historical data...
Loading historical data...
Loading historical data...

Documentation

Showing up to 5 results
|